Regional Weather Roundup
Issued by NWS

Home | Current Version | Previous Version | Graphics & Text | Print | Product List | Glossary On
Versions: 1 2 3 4 5 6 7 8 9 10 11 12 13 14 15 16 17 18 19 20 21 22 23 24 25 26 27 28 29 30 31 32 33 34 35 36 37 38 39 40 41 42 43 44 45 46 47 48 49 50
000
ASUS43 KTOP 301408
RWRKS

WEATHER ROUNDUP FOR KANSAS
NATIONAL WEATHER SERVICE GOODLAND KS
800 AM CST FRI JAN 30 2015

NOTE:  "FAIR" INDICATES FEW OR NO CLOUDS BELOW 12,000 FEET WITH NO
SIGNIFICANT WEATHER AND/OR OBSTRUCTIONS TO VISIBILITY.

KSZ001>006-013>018-027>032-041>047-301500-
NORTHWEST KANSAS

CITY           SKY/WX    TMP DP  RH WIND       PRES   REMARKS
GOODLAND       CLOUDY    31  23  72 S16       30.31F WCI  20
HAYS           CLOUDY    19  10  68 SW3       30.46S
HILL CITY      CLOUDY    22  17  81 CALM      30.44S
RUSSELL        CLOUDY    22  20  92 S6        30.46S
$$

KSZ061>065-074>080-084>089-301500-
SOUTHWEST KANSAS

CITY           SKY/WX    TMP DP  RH WIND       PRES   REMARKS
DODGE CITY     MOCLDY    27  21  78 S8        30.45F
ELKHART          N/A     35  24  64 S9          N/A
GARDEN CITY    CLOUDY    31  25  78 S10       30.41F WCI  22
LIBERAL        CLOUDY    36  25  64 S8        30.45F
PRATT          MOCLDY    28  21  74 S5        30.50R
$$

KSZ066>073-081>083-090>101-301500-
SOUTHEAST KANSAS

CITY           SKY/WX    TMP DP  RH WIND       PRES   REMARKS
CHANUTE        PTCLDY    21  19  92 CALM      30.54R
COFFEYVILLE    PTCLDY    23  20  88 N3        30.55S
HUTCHINSON     CLOUDY    24  19  81 E5        30.52S
MEDICINE LODGE   N/A     23  20  88 CALM      30.52R
NEWTON         CLOUDY    25  18  74 CALM      30.53S
PARSONS        PTCLDY    21  19  92 CALM      30.55S
WICHITA INTL   CLOUDY    25  20  81 CALM      30.54R
WICHITA JABRA  CLOUDY    23  20  88 CALM      30.53R
WICHITA MCCONL MOCLDY    28  23  82 CALM      30.54R
WINFIELD       MOCLDY    23  20  88 CALM      30.55R
$$

KSZ007>012-019>026-033>040-048>060-102>105-301500-
NORTHEAST KANSAS

CITY           SKY/WX    TMP DP  RH WIND       PRES   REMARKS
CONCORDIA      PTCLDY    20  18  92 S3        30.51S FOG
EMPORIA        MOCLDY    20  18  92 W6        30.54R
LAWRENCE       CLEAR     15  12  88 CALM      30.55S FOG
MANHATTAN      PTCLDY    17  15  92 CALM      30.55S
MARYSVILLE     CLOUDY    14  12  92 CALM      30.53S
OLATHE IND     CLEAR     18  18 100 CALM      30.53S
OLATHE EXE     CLEAR     23  20  88 E5        30.51F
SALINA         MOCLDY    21  17  84 S3        30.54R
TOPEKA BILLARD PTCLDY    19  15  84 CALM      30.56R
TOPEKA FORBES  PTCLDY    19  15  84 CALM      30.53S
$$



USA.gov is the U.S. government's official web portal to all federal, state and local government web resources and services.